| time (UTC) | temp F | wind direction | speed MPH | gust MPH | rain 1hr in | rain 24hr in | rain mn in | humidity % | barometer mb |
| 20260503020240 | 67 | 249 | 0.0 | 0.0 | 0.00 | 0.00 | 0.00 | 44 | 1021.3 |
| 20260503015736 | 68 | 240 | 0.0 | 0.0 | 0.00 | 0.00 | 0.00 | 43 | 1021.6 |
| 20260503015232 | 69 | 255 | 0.0 | 0.0 | 0.00 | 0.00 | 0.00 | 43 | 1021.2 |
| 20260503014728 | 71 | 260 | 0.0 | 0.0 | 0.00 | 0.00 | 0.00 | 40 | 1021.3 |
| 20260503014227 | 72 | 250 | 0.0 | 0.0 | 0.00 | 0.00 | 0.00 | 38 | 1021.1 |
| 20260503013724 | 72 | 246 | 0.0 | 0.0 | 0.00 | 0.00 | 0.00 | 37 | 1021.2 |
| 20260503013221 | 71 | 242 | 0.0 | 0.0 | 0.00 | 0.00 | 0.00 | 35 | 1021.5 |
| 20260503012718 | 71 | 279 | 0.0 | 1.0 | 0.00 | 0.00 | 0.00 | 35 | 1021.3 |
| 20260503012215 | 71 | 267 | 0.0 | 0.0 | 0.00 | 0.00 | 0.00 | 36 | 1021.6 |
| 20260503011712 | 72 | 272 | 1.0 | 1.0 | 0.00 | 0.00 | 0.00 | 36 | 1021.6 |
| 20260503011209 | 72 | 285 | 0.0 | 0.0 | 0.00 | 0.00 | 0.00 | 31 | 1021.7 |
| 20260503010705 | 74 | 247 | 3.0 | 3.0 | 0.00 | 0.00 | 0.00 | 31 | 1021.8 |
| 20260503010202 | 74 | 292 | 1.0 | 1.0 | 0.00 | 0.00 | 0.00 | 29 | 1021.5 |
| 20260503005659 | 73 | 278 | 1.0 | 1.0 | 0.00 | 0.00 | 0.00 | 33 | 1021.7 |
| 20260503005156 | 73 | 250 | 0.0 | 0.0 | 0.00 | 0.00 | 0.00 | 37 | 1021.7 |
| 20260503004653 | 74 | 318 | 1.0 | 1.0 | 0.00 | 0.00 | 0.00 | 29 | 1021.7 |
| 20260503004151 | 74 | 324 | 0.0 | 0.0 | 0.00 | 0.00 | 0.00 | 30 | 1021.6 |
| 20260503003648 | 73 | 347 | 2.0 | 2.0 | 0.00 | 0.00 | 0.00 | 29 | 1021.7 |
| 20260503003145 | 73 | 340 | 3.0 | 3.0 | 0.00 | 0.00 | 0.00 | 32 | 1021.7 |
| 20260503002642 | 73 | 332 | 4.0 | 5.0 | 0.00 | 0.00 | 0.00 | 33 | 1022.0 |
| 20260503002138 | 74 | 349 | 5.0 | 5.0 | 0.00 | 0.00 | 0.00 | 32 | 1021.8 |
| 20260503001634 | 75 | 267 | 2.0 | 2.0 | 0.00 | 0.00 | 0.00 | 28 | 1021.6 |
| 20260503001131 | 76 | 284 | 2.0 | 2.0 | 0.00 | 0.00 | 0.00 | 32 | 1021.6 |
| 20260503000629 | 76 | 249 | 0.0 | 0.0 | 0.00 | 0.00 | 0.00 | 26 | 1021.9 |
| 20260503000126 | 75 | 214 | 2.0 | 2.0 | 0.00 | 0.00 | 0.00 | 26 | 1021.7 |
| 20260502235623 | 75 | 221 | 0.0 | 1.0 | 0.00 | 0.00 | 0.00 | 29 | 1021.8 |
| 20260502235121 | 76 | 192 | 2.0 | 3.0 | 0.00 | 0.00 | 0.00 | 29 | 1021.9 |
| 20260502234616 | 76 | 219 | 2.0 | 2.0 | 0.00 | 0.00 | 0.00 | 27 | 1021.8 |
| 20260502234114 | 77 | 233 | 0.0 | 1.0 | 0.00 | 0.00 | 0.00 | 30 | 1021.9 |
| 20260502233609 | 76 | 230 | 0.0 | 0.0 | 0.00 | 0.00 | 0.00 | 26 | 1022.1 |
| 20260502233107 | 76 | 124 | 0.0 | 1.0 | 0.00 | 0.00 | 0.00 | 29 | 1022.1 |
| 20260502232603 | 77 | 257 | 0.0 | 0.0 | 0.00 | 0.00 | 0.00 | 27 | 1021.9 |
| 20260502232100 | 76 | 298 | 1.0 | 1.0 | 0.00 | 0.00 | 0.00 | 28 | 1022.1 |
| 20260502231557 | 75 | 304 | 2.0 | 3.0 | 0.00 | 0.00 | 0.00 | 27 | 1022.2 |
| 20260502231055 | 76 | 7 | 0.0 | 1.0 | 0.00 | 0.00 | 0.00 | 31 | 1022.5 |
| 20260502230553 | 76 | 317 | 2.0 | 3.0 | 0.00 | 0.00 | 0.00 | 25 | 1022.6 |
| 20260502230051 | 76 | 292 | 2.0 | 2.0 | 0.00 | 0.00 | 0.00 | 28 | 1022.5 |
| 20260502225546 | 75 | 305 | 2.0 | 2.0 | 0.00 | 0.00 | 0.00 | 27 | 1022.5 |
| 20260502225044 | 75 | 245 | 0.0 | 1.0 | 0.00 | 0.00 | 0.00 | 28 | 1022.5 |
| 20260502224540 | 75 | 289 | 1.0 | 1.0 | 0.00 | 0.00 | 0.00 | 30 | 1022.7 |
| 20260502224037 | 75 | 334 | 5.0 | 6.0 | 0.00 | 0.00 | 0.00 | 27 | 1022.5 |
| 20260502223535 | 76 | 154 | 4.0 | 5.0 | 0.00 | 0.00 | 0.00 | 28 | 1022.7 |
| 20260502223033 | 75 | 245 | 0.0 | 0.0 | 0.00 | 0.00 | 0.00 | 27 | 1022.9 |
| 20260502222530 | 75 | 235 | 3.0 | 5.0 | 0.00 | 0.00 | 0.00 | 27 | 1022.9 |
| 20260502222026 | 74 | 23 | 1.0 | 1.0 | 0.00 | 0.00 | 0.00 | 26 | 1022.9 |
| 20260502221522 | 74 | 166 | 2.0 | 2.0 | 0.00 | 0.00 | 0.00 | 28 | 1023.0 |
| 20260502221019 | 74 | 323 | 0.0 | 1.0 | 0.00 | 0.00 | 0.00 | 29 | 1023.1 |
| 20260502220515 | 73 | 232 | 0.0 | 0.0 | 0.00 | 0.00 | 0.00 | 30 | 1023.1 |
| 20260502220012 | 71 | 336 | 2.0 | 3.0 | 0.00 | 0.00 | 0.00 | 34 | 1023.3 |
| 20260502215509 | 71 | 328 | 4.0 | 5.0 | 0.00 | 0.00 | 0.00 | 34 | 1023.4 |
| 20260502215006 | 70 | 339 | 4.0 | 5.0 | 0.00 | 0.00 | 0.00 | 32 | 1023.4 |
| 20260502214503 | 70 | 322 | 7.0 | 7.0 | 0.00 | 0.00 | 0.00 | 34 | 1023.8 |
| 20260502214000 | 70 | 342 | 3.0 | 3.0 | 0.00 | 0.00 | 0.00 | 35 | 1023.4 |
| 20260502213456 | 70 | 317 | 3.0 | 3.0 | 0.00 | 0.00 | 0.00 | 37 | 1023.6 |
| 20260502212955 | 70 | 342 | 2.0 | 3.0 | 0.00 | 0.00 | 0.00 | 37 | 1023.4 |
| 20260502212453 | 70 | 328 | 3.0 | 3.0 | 0.00 | 0.00 | 0.00 | 33 | 1023.7 |
| 20260502211950 | 70 | 319 | 2.0 | 2.0 | 0.00 | 0.00 | 0.00 | 37 | 1023.4 |
| 20260502211446 | 70 | 312 | 2.0 | 2.0 | 0.00 | 0.00 | 0.00 | 36 | 1023.6 |
| 20260502210944 | 70 | 358 | 3.0 | 3.0 | 0.00 | 0.00 | 0.00 | 32 | 1023.7 |
| 20260502210440 | 70 | 317 | 5.0 | 6.0 | 0.00 | 0.00 | 0.00 | 32 | 1023.9 |
| 20260502205937 | 70 | 317 | 2.0 | 3.0 | 0.00 | 0.00 | 0.00 | 32 | 1023.8 |
| 20260502205433 | 70 | 319 | 3.0 | 3.0 | 0.00 | 0.00 | 0.00 | 33 | 1024.1 |
| 20260502204931 | 70 | 324 | 3.0 | 3.0 | 0.00 | 0.00 | 0.00 | 31 | 1024.0 |
| 20260502204428 | 69 | 314 | 4.0 | 5.0 | 0.00 | 0.00 | 0.00 | 34 | 1024.0 |
| 20260502203926 | 70 | 324 | 6.0 | 6.0 | 0.00 | 0.00 | 0.00 | 35 | 1024.1 |
| 20260502203423 | 70 | 313 | 4.0 | 5.0 | 0.00 | 0.00 | 0.00 | 35 | 1024.2 |
| 20260502202918 | 70 | 293 | 3.0 | 3.0 | 0.00 | 0.00 | 0.00 | 38 | 1023.7 |
| 20260502202416 | 71 | 339 | 4.0 | 5.0 | 0.00 | 0.00 | 0.00 | 34 | 1023.9 |
| 20260502201914 | 71 | 318 | 5.0 | 6.0 | 0.00 | 0.00 | 0.00 | 36 | 1023.9 |
| 20260502201409 | 70 | 344 | 5.0 | 6.0 | 0.00 | 0.00 | 0.00 | 36 | 1024.1 |
| 20260502200907 | 70 | 327 | 4.0 | 5.0 | 0.00 | 0.00 | 0.00 | 36 | 1024.2 |
| 20260502200402 | 71 | 309 | 3.0 | 3.0 | 0.00 | 0.00 | 0.00 | 34 | 1024.2 |
| 20260502195900 | 70 | 229 | 0.0 | 0.0 | 0.00 | 0.00 | 0.00 | 35 | 1024.2 |
| 20260502195356 | 70 | 275 | 0.0 | 0.0 | 0.00 | 0.00 | 0.00 | 37 | 1024.2 |
| 20260502194853 | 69 | 313 | 0.0 | 0.0 | 0.00 | 0.00 | 0.00 | 40 | 1024.7 |
| 20260502194350 | 68 | 303 | 3.0 | 3.0 | 0.00 | 0.00 | 0.00 | 41 | 1024.8 |
| 20260502193846 | 69 | 14 | 4.0 | 8.0 | 0.00 | 0.00 | 0.00 | 43 | 1024.5 |
| 20260502193343 | 69 | 340 | 5.0 | 6.0 | 0.00 | 0.00 | 0.00 | 38 | 1024.9 |
| 20260502192839 | 68 | 335 | 5.0 | 6.0 | 0.00 | 0.00 | 0.00 | 41 | 1024.9 |
| 20260502192336 | 68 | 275 | 1.0 | 2.0 | 0.00 | 0.00 | 0.00 | 40 | 1024.9 |
| 20260502191833 | 68 | 330 | 5.0 | 6.0 | 0.00 | 0.00 | 0.00 | 35 | 1024.9 |
| 20260502191331 | 68 | 325 | 4.0 | 5.0 | 0.00 | 0.00 | 0.00 | 36 | 1025.2 |
| 20260502190828 | 68 | 321 | 1.0 | 3.0 | 0.00 | 0.00 | 0.00 | 39 | 1025.3 |
| 20260502190325 | 68 | 299 | 3.0 | 5.0 | 0.00 | 0.00 | 0.00 | 35 | 1025.1 |
| 20260502185821 | 67 | 308 | 2.0 | 2.0 | 0.00 | 0.00 | 0.00 | 37 | 1025.3 |
| 20260502185317 | 66 | 265 | 1.0 | 2.0 | 0.00 | 0.00 | 0.00 | 39 | 1025.3 |
| 20260502184814 | 66 | 260 | 2.0 | 2.0 | 0.00 | 0.00 | 0.00 | 43 | 1025.3 |
| 20260502184309 | 66 | 270 | 2.0 | 2.0 | 0.00 | 0.00 | 0.00 | 40 | 1025.5 |
| 20260502183806 | 65 | 189 | 0.0 | 1.0 | 0.00 | 0.00 | 0.00 | 38 | 1025.4 |
| 20260502183302 | 66 | 75 | 0.0 | 2.0 | 0.00 | 0.00 | 0.00 | 40 | 1025.7 |
| 20260502182758 | 64 | 294 | 2.0 | 2.0 | 0.00 | 0.00 | 0.00 | 40 | 1025.5 |
| 20260502182253 | 64 | 341 | 2.0 | 2.0 | 0.00 | 0.00 | 0.00 | 41 | 1025.5 |
| 20260502181750 | 63 | 188 | 1.0 | 1.0 | 0.00 | 0.00 | 0.00 | 42 | 1026.0 |
| 20260502181249 | 63 | 309 | 3.0 | 3.0 | 0.00 | 0.00 | 0.00 | 38 | 1026.0 |
| 20260502180746 | 63 | 341 | 3.0 | 3.0 | 0.00 | 0.00 | 0.00 | 39 | 1026.2 |
| 20260502180244 | 63 | 254 | 0.0 | 0.0 | 0.00 | 0.00 | 0.00 | 46 | 1026.0 |
| 20260502170208 | 57 | 216 | 1.0 | 1.0 | 0.00 | 0.00 | 0.00 | 50 | 1026.6 |
| 20260502164155 | 55 | 351 | 3.0 | 3.0 | 0.00 | 0.00 | 0.00 | 56 | 1026.6 |
| 20260502163650 | 55 | 334 | 2.0 | 2.0 | 0.00 | 0.00 | 0.00 | 55 | 1026.9 |
| 20260502163147 | 55 | 324 | 2.0 | 2.0 | 0.00 | 0.00 | 0.00 | 58 | 1027.0 |
| 20260502162644 | 54 | 330 | 0.0 | 1.0 | 0.00 | 0.00 | 0.00 | 58 | 1026.9 |
| 20260502162141 | 54 | 265 | 0.0 | 1.0 | 0.00 | 0.00 | 0.00 | 56 | 1027.0 |
| 20260502161638 | 53 | 332 | 2.0 | 2.0 | 0.00 | 0.00 | 0.00 | 61 | 1027.2 |
| 20260502161135 | 53 | 344 | 3.0 | 3.0 | 0.00 | 0.00 | 0.00 | 60 | 1027.4 |
| 20260502160633 | 52 | 335 | 4.0 | 6.0 | 0.00 | 0.00 | 0.00 | 66 | 1027.2 |
| 20260502160131 | 53 | 7 | 4.0 | 6.0 | 0.00 | 0.00 | 0.00 | 65 | 1027.5 |
| 20260502152045 | 50 | 301 | 0.0 | 0.0 | 0.00 | 0.00 | 0.00 | 70 | 1027.8 |
| 20260502151543 | 50 | 232 | 0.0 | 0.0 | 0.00 | 0.00 | 0.00 | 64 | 1027.4 |
| 20260502151040 | 49 | 193 | 1.0 | 1.0 | 0.00 | 0.00 | 0.00 | 67 | 1027.8 |
| 20260502150538 | 48 | 184 | 0.0 | 0.0 | 0.00 | 0.00 | 0.00 | 67 | 1027.6 |
| 20260502130422 | 33 | 213 | 0.0 | 0.0 | 0.00 | 0.00 | 0.00 | 95 | 1027.8 |
| 20260502123405 | 33 | 212 | 0.0 | 0.0 | 0.00 | 0.00 | 0.00 | 95 | 1027.4 |
| 20260502122902 | 33 | 214 | 0.0 | 0.0 | 0.00 | 0.00 | 0.00 | 95 | 1027.5 |
| 20260502122358 | 33 | 214 | 0.0 | 0.0 | 0.00 | 0.00 | 0.00 | 94 | 1027.4 |
| 20260502121856 | 33 | 211 | 0.0 | 0.0 | 0.00 | 0.00 | 0.00 | 95 | 1027.4 |
| 20260502121353 | 33 | 211 | 0.0 | 1.0 | 0.00 | 0.00 | 0.00 | 94 | 1027.5 |
| 20260502120851 | 33 | 228 | 0.0 | 0.0 | 0.00 | 0.00 | 0.00 | 94 | 1027.5 |
| 20260502120347 | 33 | 235 | 0.0 | 0.0 | 0.00 | 0.00 | 0.00 | 94 | 1027.6 |
| 20260502115844 | 32 | 245 | 0.0 | 0.0 | 0.00 | 0.00 | 0.00 | 94 | 1027.4 |
| 20260502115341 | 32 | 245 | 0.0 | 0.0 | 0.00 | 0.00 | 0.00 | 94 | 1027.6 |
| 20260502114837 | 32 | 245 | 0.0 | 0.0 | 0.00 | 0.00 | 0.00 | 94 | 1027.4 |
| 20260502114335 | 32 | 245 | 0.0 | 0.0 | 0.00 | 0.00 | 0.00 | 94 | 1027.5 |
| 20260502113832 | 32 | 246 | 0.0 | 0.0 | 0.00 | 0.00 | 0.00 | 94 | 1027.8 |
| 20260502113329 | 33 | 246 | 0.0 | 0.0 | 0.00 | 0.00 | 0.00 | 94 | 1027.6 |
| 20260502112827 | 34 | 239 | 0.0 | 0.0 | 0.00 | 0.00 | 0.00 | 94 | 1027.3 |
| 20260502112324 | 34 | 240 | 0.0 | 0.0 | 0.00 | 0.00 | 0.00 | 94 | 1027.5 |
| 20260502111822 | 35 | 216 | 0.0 | 0.0 | 0.00 | 0.00 | 0.00 | 94 | 1027.5 |
| 20260502111319 | 35 | 216 | 0.0 | 0.0 | 0.00 | 0.00 | 0.00 | 94 | 1027.4 |
| 20260502110817 | 33 | 224 | 0.0 | 0.0 | 0.00 | 0.00 | 0.00 | 94 | 1027.4 |
| 20260502110314 | 33 | 224 | 0.0 | 0.0 | 0.00 | 0.00 | 0.00 | 94 | 1027.2 |
| 20260502105812 | 33 | 224 | 0.0 | 0.0 | 0.00 | 0.00 | 0.00 | 94 | 1027.5 |
| 20260502105308 | 32 | 223 | 0.0 | 0.0 | 0.00 | 0.00 | 0.00 | 94 | 1027.3 |
| 20260502104806 | 33 | 223 | 0.0 | 0.0 | 0.00 | 0.00 | 0.00 | 93 | 1027.1 |
| 20260502104303 | 34 | 184 | 1.0 | 1.0 | 0.00 | 0.00 | 0.00 | 94 | 1027.1 |
| 20260502103801 | 33 | 239 | 0.0 | 0.0 | 0.00 | 0.00 | 0.00 | 94 | 1027.2 |
| 20260502103258 | 33 | 239 | 0.0 | 0.0 | 0.00 | 0.00 | 0.00 | 93 | 1027.2 |
| 20260502102755 | 35 | 226 | 0.0 | 0.0 | 0.00 | 0.00 | 0.00 | 93 | 1027.2 |
| 20260502102251 | 35 | 229 | 0.0 | 0.0 | 0.00 | 0.00 | 0.00 | 93 | 1027.0 |
| 20260502101749 | 36 | 238 | 0.0 | 0.0 | 0.00 | 0.00 | 0.00 | 93 | 1027.0 |
| 20260502101247 | 35 | 217 | 0.0 | 0.0 | 0.00 | 0.00 | 0.00 | 93 | 1026.9 |
| 20260502100745 | 36 | 218 | 0.0 | 0.0 | 0.00 | 0.00 | 0.00 | 93 | 1026.9 |
| 20260502100244 | 34 | 232 | 0.0 | 0.0 | 0.00 | 0.00 | 0.00 | 93 | 1026.8 |
| 20260502091218 | 36 | 235 | 0.0 | 0.0 | 0.00 | 0.00 | 0.00 | 92 | 1026.9 |
| 20260502090715 | 36 | 248 | 0.0 | 0.0 | 0.00 | 0.00 | 0.00 | 91 | 1026.8 |
| 20260502090212 | 36 | 248 | 0.0 | 0.0 | 0.00 | 0.00 | 0.00 | 91 | 1026.5 |
| 20260502071113 | 39 | 259 | 0.0 | 0.0 | 0.00 | 0.00 | 0.00 | 88 | 1026.4 |
| 20260502070611 | 40 | 252 | 0.0 | 0.0 | 0.00 | 0.00 | 0.00 | 87 | 1026.2 |
| 20260502070109 | 40 | 242 | 0.0 | 0.0 | 0.00 | 0.00 | 0.00 | 87 | 1026.1 |
| 20260502065607 | 41 | 234 | 0.0 | 0.0 | 0.00 | 0.00 | 0.00 | 86 | 1025.8 |
| 20260502065104 | 41 | 234 | 0.0 | 0.0 | 0.00 | 0.00 | 0.00 | 86 | 1026.0 |
| 20260502064603 | 41 | 234 | 0.0 | 0.0 | 0.00 | 0.00 | 0.00 | 85 | 1026.1 |
| 20260502064059 | 41 | 235 | 0.0 | 0.0 | 0.00 | 0.00 | 0.00 | 85 | 1026.0 |
| 20260502063557 | 41 | 234 | 0.0 | 0.0 | 0.00 | 0.00 | 0.00 | 84 | 1026.0 |
| 20260502063055 | 41 | 209 | 0.0 | 0.0 | 0.00 | 0.00 | 0.00 | 83 | 1025.7 |
| 20260502062551 | 42 | 227 | 0.0 | 0.0 | 0.00 | 0.00 | 0.00 | 83 | 1025.8 |
| 20260502062049 | 42 | 202 | 0.0 | 1.0 | 0.00 | 0.00 | 0.00 | 83 | 1025.8 |
| 20260502061547 | 42 | 230 | 0.0 | 0.0 | 0.00 | 0.00 | 0.00 | 81 | 1025.7 |
| 20260502061044 | 43 | 192 | 0.0 | 0.0 | 0.00 | 0.00 | 0.00 | 81 | 1025.4 |
| 20260502060539 | 42 | 205 | 0.0 | 0.0 | 0.00 | 0.00 | 0.00 | 81 | 1025.7 |
| 20260502060037 | 42 | 246 | 0.0 | 0.0 | 0.00 | 0.00 | 0.00 | 81 | 1025.4 |
| 20260502055534 | 43 | 266 | 0.0 | 0.0 | 0.00 | 0.00 | 0.00 | 80 | 1025.8 |
| 20260502055032 | 43 | 214 | 0.0 | 0.0 | 0.00 | 0.00 | 0.00 | 79 | 1025.3 |
| 20260502054531 | 43 | 71 | 1.0 | 1.0 | 0.00 | 0.00 | 0.00 | 79 | 1025.5 |
| 20260502054027 | 44 | 247 | 1.0 | 2.0 | 0.00 | 0.00 | 0.00 | 78 | 1025.4 |
| 20260502053524 | 45 | 219 | 0.0 | 0.0 | 0.00 | 0.00 | 0.00 | 78 | 1025.2 |
| 20260502053022 | 46 | 207 | 0.0 | 0.0 | 0.00 | 0.00 | 0.00 | 74 | 1025.2 |
| 20260502052520 | 46 | 177 | 0.0 | 1.0 | 0.00 | 0.00 | 0.00 | 74 | 1025.3 |
| 20260502052018 | 46 | 207 | 0.0 | 0.0 | 0.00 | 0.00 | 0.00 | 71 | 1025.2 |
| 20260502051516 | 45 | 242 | 0.0 | 0.0 | 0.00 | 0.00 | 0.00 | 72 | 1025.1 |
| 20260502051013 | 46 | 220 | 0.0 | 0.0 | 0.00 | 0.00 | 0.00 | 71 | 1025.1 |
| 20260502050509 | 46 | 199 | 0.0 | 0.0 | 0.00 | 0.00 | 0.00 | 69 | 1025.1 |
| 20260502050007 | 46 | 190 | 1.0 | 1.0 | 0.00 | 0.00 | 0.00 | 71 | 1024.9 |
| 20260502045503 | 46 | 239 | 0.0 | 0.0 | 0.00 | 0.00 | 0.00 | 69 | 1024.9 |
| 20260502045001 | 48 | 246 | 0.0 | 1.0 | 0.00 | 0.00 | 0.00 | 70 | 1025.0 |
| 20260502044456 | 48 | 65 | 1.0 | 1.0 | 0.00 | 0.00 | 0.00 | 70 | 1025.0 |
| 20260502043953 | 46 | 323 | 0.0 | 0.0 | 0.00 | 0.00 | 0.00 | 72 | 1025.0 |
| 20260502043451 | 48 | 322 | 1.0 | 1.0 | 0.00 | 0.00 | 0.00 | 73 | 1024.8 |
| 20260502042950 | 49 | 346 | 2.0 | 2.0 | 0.00 | 0.00 | 0.00 | 66 | 1024.8 |
| 20260502042447 | 49 | 251 | 0.0 | 0.0 | 0.00 | 0.00 | 0.00 | 62 | 1024.7 |
| 20260502041945 | 49 | 272 | 0.0 | 0.0 | 0.00 | 0.00 | 0.00 | 65 | 1024.7 |
| 20260502041442 | 49 | 244 | 0.0 | 0.0 | 0.00 | 0.00 | 0.00 | 65 | 1024.7 |
| 20260502040939 | 49 | 166 | 1.0 | 1.0 | 0.00 | 0.00 | 0.00 | 62 | 1024.5 |
| 20260502040436 | 50 | 234 | 1.0 | 2.0 | 0.00 | 0.00 | 0.00 | 65 | 1024.5 |
| 20260502035932 | 50 | 133 | 2.0 | 2.0 | 0.00 | 0.00 | 0.00 | 63 | 1024.4 |
| 20260502035428 | 50 | 229 | 0.0 | 0.0 | 0.00 | 0.00 | 0.00 | 62 | 1024.5 |
| 20260502034926 | 50 | 196 | 0.0 | 1.0 | 0.00 | 0.00 | 0.00 | 61 | 1024.5 |
| 20260502034425 | 52 | 228 | 0.0 | 0.0 | 0.00 | 0.00 | 0.00 | 62 | 1024.1 |
| 20260502033923 | 53 | 317 | 1.0 | 2.0 | 0.00 | 0.00 | 0.00 | 58 | 1024.3 |
| 20260502033420 | 52 | 300 | 2.0 | 3.0 | 0.00 | 0.00 | 0.00 | 55 | 1024.3 |
| 20260502032916 | 52 | 221 | 0.0 | 0.0 | 0.00 | 0.00 | 0.00 | 59 | 1024.1 |
| 20260502032413 | 52 | 188 | 0.0 | 0.0 | 0.00 | 0.00 | 0.00 | 59 | 1024.3 |
| 20260502031910 | 57 | 163 | 0.0 | 0.0 | 0.00 | 0.00 | 0.00 | 51 | 1024.2 |
| 20260502031409 | 55 | 146 | 3.0 | 3.0 | 0.00 | 0.00 | 0.00 | 51 | 1024.0 |
| 20260502030907 | 53 | 212 | 0.0 | 0.0 | 0.00 | 0.00 | 0.00 | 59 | 1024.2 |
| 20260502030404 | 53 | 280 | 0.0 | 0.0 | 0.00 | 0.00 | 0.00 | 60 | 1024.1 |
| 20260502025902 | 54 | 118 | 2.0 | 2.0 | 0.00 | 0.00 | 0.00 | 56 | 1023.9 |
| 20260502025359 | 56 | 259 | 0.0 | 0.0 | 0.00 | 0.00 | 0.00 | 60 | 1023.7 |
| 20260502024857 | 56 | 190 | 0.0 | 0.0 | 0.00 | 0.00 | 0.00 | 54 | 1023.6 |
| 20260502024354 | 56 | 175 | 1.0 | 2.0 | 0.00 | 0.00 | 0.00 | 60 | 1023.7 |
| 20260502023852 | 60 | 233 | 0.0 | 0.0 | 0.00 | 0.00 | 0.00 | 54 | 1023.6 |
| 20260502023350 | 60 | 198 | 0.0 | 0.0 | 0.00 | 0.00 | 0.00 | 47 | 1023.3 |
| 20260502022847 | 60 | 253 | 0.0 | 0.0 | 0.00 | 0.00 | 0.00 | 44 | 1023.4 |
| 20260502022343 | 62 | 317 | 1.0 | 2.0 | 0.00 | 0.00 | 0.00 | 42 | 1023.3 |
| 20260502021840 | 62 | 266 | 0.0 | 0.0 | 0.00 | 0.00 | 0.00 | 39 | 1023.3 |
| 20260502021338 | 62 | 249 | 0.0 | 0.0 | 0.00 | 0.00 | 0.00 | 42 | 1023.3 |
| 20260502020835 | 64 | 252 | 0.0 | 0.0 | 0.00 | 0.00 | 0.00 | 42 | 1023.3 |